User: anonymous   Login
Location: San Antonio
(29.4240°N, 98.4930°W)
Time: 06:47:23
(UTC-05:00)
Language:

S-56A Canister/Altair - Orbit

View from above orbital plane
View from above orbital plane
View from above satellite
View from above satellite

Ground track
Ground track

The orbit data is extracted from the following two-line orbital elements,

1 00082U 61004B   24200.85895838  .00001365  00000-0  11894-2 0  9993
2 00082  38.8541  72.0675 1164623  87.3298 285.9848 12.26841950991009
Epoch (UTC): 18 July 2024 20:36:54
Eccentricity: 0.1164623
inclination: 38.8541°
perigee height: 638 km
apogee height: 2487 km
right ascension of ascending node: 72.0675°
argument of perigee: 87.3298°
revolutions per day: 12.26841950
mean anomaly at epoch: 285.9848°
orbit number at epoch: 99100

The dashed part of the orbit path shows where the satellite is in the earth's shadow,  

DLR